| time (UTC) | temp F | wind direction | speed MPH | gust MPH | rain 1hr in | rain 24hr in | rain mn in | humidity % | barometer mb |
| 20260507040638 | 62 | 0 | 0.0 | 6.0 | 0.00 | 0.11 | 0.00 | 80 | 1008.9 |
| 20260507040411 | 62 | 319 | 1.0 | 6.0 | 0.00 | 0.11 | 0.00 | 80 | 1009.0 |
| 20260507035637 | 62 | 63 | 1.0 | 9.0 | 0.00 | 0.11 | 0.11 | 79 | 1009.0 |
| 20260507035135 | 63 | 311 | 1.0 | 9.0 | 0.00 | 0.11 | 0.11 | 78 | 1009.1 |
| 20260507034633 | 63 | 48 | 1.0 | 9.0 | 0.00 | 0.11 | 0.11 | 78 | 1009.1 |
| 20260507034134 | 63 | 325 | 1.0 | 9.0 | 0.00 | 0.11 | 0.11 | 78 | 1009.3 |
| 20260507033633 | 63 | 336 | 1.0 | 9.0 | 0.00 | 0.11 | 0.11 | 78 | 1008.9 |
| 20260507033403 | 64 | 40 | 2.0 | 10.0 | 0.00 | 0.11 | 0.11 | 77 | 1009.0 |
| 20260507032628 | 64 | 284 | 2.0 | 10.0 | 0.00 | 0.11 | 0.11 | 77 | 1008.9 |
| 20260507032128 | 64 | 355 | 2.0 | 13.0 | 0.00 | 0.11 | 0.11 | 77 | 1008.9 |
| 20260507031631 | 64 | 311 | 2.0 | 13.0 | 0.00 | 0.11 | 0.11 | 76 | 1008.9 |
| 20260507031129 | 64 | 0 | 3.0 | 11.0 | 0.00 | 0.11 | 0.11 | 77 | 1008.7 |
| 20260507030627 | 65 | 323 | 5.0 | 14.0 | 0.00 | 0.11 | 0.11 | 77 | 1008.6 |
| 20260507030127 | 65 | 351 | 4.0 | 14.0 | 0.00 | 0.11 | 0.11 | 80 | 1008.7 |
| 20260507025855 | 65 | 290 | 2.0 | 11.0 | 0.00 | 0.11 | 0.11 | 82 | 1008.3 |
| 20260507025400 | 65 | 5 | 0.0 | 5.0 | 0.00 | 0.11 | 0.11 | 83 | 1008.2 |
| 20260507025125 | 65 | 51 | 0.0 | 5.0 | 0.00 | 0.11 | 0.11 | 82 | 1008.3 |
| 20260507024124 | 65 | 277 | 0.0 | 6.0 | 0.00 | 0.11 | 0.11 | 83 | 1008.4 |
| 20260507023854 | 65 | 276 | 0.0 | 6.0 | 0.00 | 0.11 | 0.11 | 83 | 1008.2 |
| 20260507023124 | 65 | 325 | 1.0 | 6.0 | 0.00 | 0.11 | 0.11 | 83 | 1008.3 |
| 20260507022622 | 65 | 319 | 1.0 | 13.0 | 0.00 | 0.11 | 0.11 | 87 | 1008.3 |
| 20260507022617 | 65 | 263 | 2.0 | 13.0 | 0.00 | 0.11 | 0.11 | 85 | 1008.2 |
| 20260507021852 | 65 | 42 | 0.0 | 0.0 | 0.00 | 0.11 | 0.11 | 88 | 1008.1 |
| 20260507021616 | 65 | 314 | 0.0 | 0.0 | 0.00 | 0.11 | 0.11 | 88 | 1008.1 |
| 20260507020846 | 65 | 298 | 0.0 | 0.0 | 0.00 | 0.11 | 0.11 | 88 | 1008.1 |
| 20260507020117 | 65 | 298 | 0.0 | 0.0 | 0.00 | 0.11 | 0.11 | 88 | 1008.1 |
| 20260507015609 | 65 | 298 | 0.0 | 0.0 | 0.00 | 0.11 | 0.11 | 88 | 1008.3 |
| 20260507015107 | 65 | 298 | 0.0 | 0.0 | 0.00 | 0.11 | 0.11 | 88 | 1008.3 |
| 20260507014605 | 65 | 298 | 0.0 | 0.0 | 0.00 | 0.11 | 0.11 | 88 | 1008.4 |
| 20260507014102 | 65 | 298 | 0.0 | 0.0 | 0.00 | 0.11 | 0.11 | 87 | 1008.3 |
| 20260507013602 | 65 | 298 | 0.0 | 0.0 | 0.00 | 0.11 | 0.11 | 87 | 1008.5 |
| 20260507013101 | 65 | 158 | 0.0 | 0.0 | 0.00 | 0.11 | 0.11 | 87 | 1008.3 |
| 20260507012558 | 65 | 158 | 0.0 | 0.0 | 0.00 | 0.11 | 0.11 | 87 | 1008.3 |
| 20260507012057 | 65 | 158 | 0.0 | 0.0 | 0.00 | 0.11 | 0.11 | 86 | 1008.2 |
| 20260507011557 | 65 | 158 | 0.0 | 7.0 | 0.00 | 0.11 | 0.11 | 86 | 1008.2 |
| 20260507011055 | 65 | 158 | 0.0 | 7.0 | 0.00 | 0.11 | 0.11 | 86 | 1008.1 |
| 20260507010555 | 65 | 175 | 0.0 | 0.0 | 0.00 | 0.11 | 0.11 | 86 | 1008.2 |
| 20260507010048 | 65 | 175 | 0.0 | 3.0 | 0.00 | 0.11 | 0.11 | 86 | 1008.0 |
| 20260507005546 | 65 | 175 | 0.0 | 4.0 | 0.00 | 0.11 | 0.11 | 86 | 1008.1 |
| 20260507005045 | 65 | 175 | 0.0 | 4.0 | 0.00 | 0.11 | 0.11 | 86 | 1008.1 |
| 20260507004544 | 65 | 173 | 0.0 | 5.0 | 0.00 | 0.11 | 0.11 | 86 | 1007.9 |
| 20260507004043 | 65 | 173 | 0.0 | 5.0 | 0.00 | 0.11 | 0.11 | 86 | 1007.9 |
| 20260507003536 | 65 | 173 | 0.0 | 2.0 | 0.00 | 0.11 | 0.11 | 85 | 1007.8 |
| 20260507003033 | 65 | 173 | 0.0 | 2.0 | 0.00 | 0.11 | 0.11 | 85 | 1007.7 |
| 20260507002534 | 65 | 159 | 0.0 | 2.0 | 0.00 | 0.11 | 0.11 | 85 | 1007.7 |
| 20260507002033 | 65 | 159 | 0.0 | 2.0 | 0.00 | 0.11 | 0.11 | 85 | 1007.7 |
| 20260507001534 | 65 | 159 | 0.0 | 5.0 | 0.00 | 0.11 | 0.11 | 85 | 1007.8 |
| 20260507001034 | 65 | 159 | 0.0 | 5.0 | 0.00 | 0.11 | 0.11 | 85 | 1007.9 |
| 20260507000535 | 66 | 159 | 0.0 | 0.0 | 0.00 | 0.11 | 0.11 | 85 | 1007.8 |
| 20260507000032 | 66 | 159 | 0.0 | 4.0 | 0.00 | 0.11 | 0.11 | 84 | 1007.7 |
| 20260506235532 | 66 | 159 | 0.0 | 4.0 | 0.00 | 0.11 | 0.11 | 84 | 1007.5 |
| 20260506235032 | 66 | 159 | 0.0 | 5.0 | 0.00 | 0.11 | 0.11 | 84 | 1007.5 |
| 20260506234531 | 66 | 159 | 0.0 | 5.0 | 0.00 | 0.11 | 0.11 | 84 | 1007.3 |
| 20260506234026 | 66 | 173 | 0.0 | 0.0 | 0.00 | 0.11 | 0.11 | 84 | 1007.2 |
| 20260506233526 | 66 | 173 | 0.0 | 2.0 | 0.00 | 0.11 | 0.11 | 84 | 1007.2 |
| 20260506233025 | 66 | 173 | 0.0 | 2.0 | 0.00 | 0.11 | 0.11 | 83 | 1007.3 |
| 20260506232528 | 67 | 173 | 0.0 | 2.0 | 0.00 | 0.11 | 0.11 | 83 | 1007.3 |
| 20260506232030 | 67 | 173 | 0.0 | 0.0 | 0.00 | 0.11 | 0.11 | 83 | 1007.3 |
| 20260506231801 | 67 | 173 | 0.0 | 0.0 | 0.00 | 0.11 | 0.11 | 83 | 1007.3 |
| 20260506231024 | 67 | 173 | 0.0 | 1.0 | 0.00 | 0.11 | 0.11 | 83 | 1007.2 |
| 20260506230522 | 67 | 173 | 0.0 | 1.0 | 0.00 | 0.11 | 0.11 | 83 | 1007.3 |
| 20260506230022 | 67 | 167 | 0.0 | 5.0 | 0.00 | 0.11 | 0.11 | 83 | 1007.2 |
| 20260506225521 | 67 | 167 | 0.0 | 5.0 | 0.00 | 0.11 | 0.11 | 82 | 1007.2 |
| 20260506225022 | 67 | 178 | 0.0 | 4.0 | 0.00 | 0.11 | 0.11 | 82 | 1007.3 |
| 20260506224524 | 67 | 189 | 0.0 | 4.0 | 0.00 | 0.11 | 0.11 | 82 | 1007.4 |
| 20260506224018 | 67 | 204 | 0.0 | 3.0 | 0.00 | 0.11 | 0.11 | 82 | 1007.3 |
| 20260506223518 | 67 | 158 | 0.0 | 4.0 | 0.00 | 0.11 | 0.11 | 82 | 1007.2 |
| 20260506223017 | 68 | 169 | 0.0 | 4.0 | 0.00 | 0.11 | 0.11 | 81 | 1007.2 |
| 20260506222521 | 68 | 179 | 0.0 | 6.0 | 0.00 | 0.11 | 0.11 | 81 | 1007.2 |
| 20260506222017 | 68 | 177 | 0.0 | 6.0 | 0.00 | 0.11 | 0.11 | 81 | 1007.2 |
| 20260506221750 | 68 | 159 | 0.0 | 3.0 | 0.00 | 0.11 | 0.11 | 81 | 1007.2 |
| 20260506221019 | 68 | 147 | 0.0 | 5.0 | 0.00 | 0.11 | 0.11 | 80 | 1007.2 |
| 20260506220518 | 68 | 246 | 0.0 | 5.0 | 0.00 | 0.11 | 0.11 | 80 | 1007.3 |
| 20260506220016 | 68 | 169 | 1.0 | 4.0 | 0.00 | 0.11 | 0.11 | 80 | 1007.3 |
| 20260506215746 | 68 | 169 | 1.0 | 6.0 | 0.00 | 0.11 | 0.11 | 81 | 1007.2 |
| 20260506215015 | 68 | 169 | 0.0 | 6.0 | 0.00 | 0.11 | 0.11 | 81 | 1006.9 |
| 20260506214514 | 68 | 166 | 0.0 | 3.0 | 0.00 | 0.11 | 0.11 | 81 | 1007.0 |
| 20260506214012 | 67 | 166 | 0.0 | 5.0 | 0.00 | 0.11 | 0.11 | 81 | 1007.0 |
| 20260506213514 | 67 | 166 | 0.0 | 7.0 | 0.00 | 0.11 | 0.11 | 81 | 1007.0 |
| 20260506213009 | 67 | 175 | 1.0 | 7.0 | 0.00 | 0.11 | 0.11 | 81 | 1007.0 |
| 20260506212742 | 67 | 147 | 1.0 | 7.0 | 0.00 | 0.11 | 0.11 | 81 | 1006.9 |
| 20260506212011 | 67 | 155 | 0.0 | 7.0 | 0.00 | 0.11 | 0.11 | 81 | 1007.0 |
| 20260506211509 | 67 | 171 | 0.0 | 4.0 | 0.00 | 0.11 | 0.11 | 81 | 1006.9 |
| 20260506211006 | 67 | 172 | 0.0 | 4.0 | 0.00 | 0.11 | 0.11 | 80 | 1006.9 |
| 20260506210505 | 67 | 175 | 1.0 | 6.0 | 0.00 | 0.11 | 0.11 | 81 | 1006.9 |
| 20260506210232 | 67 | 173 | 1.0 | 6.0 | 0.00 | 0.11 | 0.11 | 81 | 1006.9 |
| 20260506205459 | 67 | 161 | 0.0 | 5.0 | 0.00 | 0.11 | 0.11 | 81 | 1006.9 |
| 20260506204956 | 67 | 203 | 0.0 | 4.0 | 0.00 | 0.11 | 0.11 | 81 | 1006.9 |
| 20260506204454 | 67 | 194 | 0.0 | 4.0 | 0.00 | 0.11 | 0.11 | 80 | 1007.0 |
| 20260506203954 | 68 | 213 | 0.0 | 3.0 | 0.00 | 0.11 | 0.11 | 80 | 1007.0 |
| 20260506203450 | 68 | 195 | 1.0 | 6.0 | 0.00 | 0.11 | 0.11 | 79 | 1006.9 |
| 20260506202949 | 68 | 194 | 1.0 | 6.0 | 0.00 | 0.11 | 0.11 | 78 | 1006.8 |
| 20260506202720 | 69 | 212 | 0.0 | 4.0 | 0.00 | 0.11 | 0.11 | 78 | 1006.8 |
| 20260506201950 | 69 | 230 | 0.0 | 3.0 | 0.00 | 0.11 | 0.11 | 78 | 1006.7 |
| 20260506201448 | 69 | 254 | 0.0 | 3.0 | 0.00 | 0.11 | 0.11 | 78 | 1006.7 |
| 20260506200947 | 69 | 182 | 0.0 | 2.0 | 0.00 | 0.11 | 0.11 | 78 | 1006.8 |
| 20260506200717 | 69 | 193 | 0.0 | 4.0 | 0.00 | 0.11 | 0.11 | 78 | 1006.8 |
| 20260506195941 | 69 | 161 | 1.0 | 8.0 | 0.00 | 0.11 | 0.11 | 76 | 1006.9 |
| 20260506195442 | 69 | 168 | 1.0 | 8.0 | 0.00 | 0.11 | 0.11 | 76 | 1006.8 |
| 20260506194943 | 69 | 207 | 1.0 | 9.0 | 0.00 | 0.11 | 0.11 | 76 | 1006.8 |
| 20260506194442 | 69 | 173 | 2.0 | 9.0 | 0.00 | 0.11 | 0.11 | 77 | 1006.7 |
| 20260506193940 | 69 | 241 | 3.0 | 11.0 | 0.00 | 0.11 | 0.11 | 76 | 1006.8 |
| 20260506193445 | 69 | 240 | 3.0 | 11.0 | 0.00 | 0.11 | 0.11 | 77 | 1006.8 |
| 20260506192940 | 69 | 223 | 2.0 | 11.0 | 0.00 | 0.11 | 0.11 | 77 | 1007.0 |
| 20260506192437 | 69 | 168 | 1.0 | 6.0 | 0.00 | 0.11 | 0.11 | 78 | 1007.1 |
| 20260506191937 | 68 | 196 | 1.0 | 7.0 | 0.00 | 0.11 | 0.11 | 78 | 1007.1 |
| 20260506191707 | 67 | 236 | 1.0 | 9.0 | 0.00 | 0.11 | 0.11 | 79 | 1007.2 |
| 20260506190934 | 67 | 193 | 1.0 | 9.0 | 0.00 | 0.11 | 0.11 | 80 | 1007.4 |
| 20260506190433 | 67 | 174 | 1.0 | 7.0 | 0.00 | 0.11 | 0.11 | 80 | 1007.5 |
| 20260506185932 | 67 | 186 | 1.0 | 7.0 | 0.00 | 0.11 | 0.11 | 80 | 1007.5 |
| 20260506185430 | 67 | 203 | 1.0 | 7.0 | 0.00 | 0.11 | 0.11 | 81 | 1007.5 |
| 20260506184930 | 66 | 205 | 0.0 | 7.0 | 0.00 | 0.11 | 0.11 | 82 | 1007.6 |
| 20260506184430 | 66 | 226 | 1.0 | 7.0 | 0.00 | 0.11 | 0.11 | 82 | 1007.5 |
| 20260506183928 | 66 | 138 | 1.0 | 7.0 | 0.00 | 0.11 | 0.11 | 82 | 1007.5 |
| 20260506183700 | 66 | 223 | 0.0 | 3.0 | 0.00 | 0.11 | 0.11 | 82 | 1007.5 |
| 20260506182924 | 66 | 186 | 1.0 | 7.0 | 0.00 | 0.11 | 0.11 | 83 | 1007.5 |
| 20260506182425 | 66 | 159 | 1.0 | 12.0 | 0.00 | 0.11 | 0.11 | 83 | 1007.6 |
| 20260506181924 | 66 | 186 | 2.0 | 12.0 | 0.00 | 0.11 | 0.11 | 83 | 1007.7 |
| 20260506181424 | 65 | 221 | 1.0 | 8.0 | 0.00 | 0.11 | 0.11 | 84 | 1007.7 |
| 20260506180924 | 65 | 202 | 1.0 | 8.0 | 0.00 | 0.11 | 0.11 | 85 | 1007.9 |
| 20260506180424 | 65 | 249 | 1.0 | 7.0 | 0.00 | 0.11 | 0.11 | 86 | 1007.8 |
| 20260506175925 | 65 | 215 | 1.0 | 6.0 | 0.00 | 0.11 | 0.11 | 87 | 1007.7 |
| 20260506175424 | 64 | 190 | 1.0 | 8.0 | 0.00 | 0.11 | 0.11 | 86 | 1007.9 |
| 20260506174921 | 64 | 172 | 1.0 | 8.0 | 0.00 | 0.11 | 0.11 | 87 | 1007.9 |
| 20260506174420 | 64 | 142 | 1.0 | 7.0 | 0.00 | 0.11 | 0.11 | 88 | 1007.9 |
| 20260506173922 | 64 | 176 | 1.0 | 6.0 | 0.00 | 0.11 | 0.11 | 88 | 1008.0 |
| 20260506173422 | 63 | 164 | 1.0 | 7.0 | 0.00 | 0.11 | 0.11 | 89 | 1008.0 |
| 20260506172920 | 63 | 171 | 2.0 | 7.0 | 0.00 | 0.11 | 0.11 | 89 | 1007.9 |
| 20260506172420 | 63 | 252 | 2.0 | 8.0 | 0.00 | 0.11 | 0.11 | 89 | 1007.9 |
| 20260506171916 | 63 | 105 | 1.0 | 8.0 | 0.00 | 0.11 | 0.11 | 89 | 1008.0 |
| 20260506171416 | 62 | 196 | 1.0 | 6.0 | 0.00 | 0.11 | 0.11 | 89 | 1008.0 |
| 20260506170917 | 62 | 200 | 1.0 | 6.0 | 0.00 | 0.11 | 0.11 | 89 | 1008.0 |
| 20260506170417 | 62 | 175 | 2.0 | 8.0 | 0.00 | 0.11 | 0.11 | 89 | 1008.1 |
| 20260506165918 | 62 | 177 | 3.0 | 10.0 | 0.00 | 0.11 | 0.11 | 90 | 1008.2 |
| 20260506165416 | 62 | 194 | 2.0 | 10.0 | 0.00 | 0.11 | 0.11 | 90 | 1008.4 |
| 20260506164918 | 62 | 179 | 1.0 | 9.0 | 0.00 | 0.11 | 0.11 | 90 | 1008.2 |
| 20260506164411 | 62 | 162 | 1.0 | 7.0 | 0.00 | 0.11 | 0.11 | 90 | 1008.3 |
| 20260506163911 | 62 | 200 | 1.0 | 7.0 | 0.00 | 0.11 | 0.11 | 90 | 1008.4 |
| 20260506163412 | 62 | 221 | 2.0 | 8.0 | 0.00 | 0.11 | 0.11 | 90 | 1008.3 |
| 20260506162911 | 62 | 132 | 3.0 | 9.0 | 0.00 | 0.11 | 0.11 | 90 | 1008.3 |
| 20260506162410 | 62 | 178 | 3.0 | 9.0 | 0.01 | 0.11 | 0.11 | 89 | 1008.4 |
| 20260506162147 | 62 | 188 | 3.0 | 10.0 | 0.02 | 0.11 | 0.11 | 90 | 1008.5 |
| 20260506161909 | 62 | 167 | 3.0 | 8.0 | 0.02 | 0.11 | 0.11 | 89 | 1008.4 |
| 20260506160908 | 62 | 185 | 2.0 | 10.0 | 0.03 | 0.11 | 0.11 | 90 | 1008.5 |
| 20260506160639 | 62 | 165 | 1.0 | 7.0 | 0.04 | 0.11 | 0.11 | 90 | 1008.6 |
| 20260506155905 | 62 | 168 | 2.0 | 8.0 | 0.05 | 0.11 | 0.11 | 91 | 1008.8 |
| 20260506155404 | 62 | 151 | 2.0 | 8.0 | 0.05 | 0.11 | 0.11 | 90 | 1008.5 |
| 20260506154904 | 62 | 163 | 2.0 | 8.0 | 0.05 | 0.11 | 0.11 | 91 | 1008.5 |
| 20260506154406 | 62 | 129 | 2.0 | 8.0 | 0.06 | 0.11 | 0.11 | 91 | 1008.7 |
| 20260506154137 | 61 | 162 | 1.0 | 6.0 | 0.06 | 0.11 | 0.11 | 91 | 1008.8 |
| 20260506153402 | 61 | 163 | 2.0 | 10.0 | 0.06 | 0.11 | 0.11 | 90 | 1009.1 |
| 20260506152857 | 61 | 179 | 3.0 | 10.0 | 0.06 | 0.11 | 0.11 | 90 | 1009.1 |
| 20260506152349 | 61 | 158 | 1.0 | 8.0 | 0.06 | 0.10 | 0.10 | 90 | 1009.3 |
| 20260506152116 | 61 | 177 | 1.0 | 11.0 | 0.05 | 0.09 | 0.09 | 89 | 1009.3 |
| 20260506151616 | 61 | 172 | 2.0 | 11.0 | 0.06 | 0.09 | 0.09 | 89 | 1009.3 |
| 20260506150844 | 61 | 233 | 1.0 | 8.0 | 0.06 | 0.08 | 0.08 | 89 | 1009.3 |
| 20260506150345 | 62 | 177 | 0.0 | 6.0 | 0.05 | 0.07 | 0.07 | 88 | 1009.4 |
| 20260506145844 | 62 | 171 | 0.0 | 6.0 | 0.04 | 0.06 | 0.06 | 88 | 1009.4 |
| 20260506145345 | 62 | 174 | 1.0 | 8.0 | 0.05 | 0.06 | 0.06 | 88 | 1009.3 |
| 20260506144840 | 62 | 169 | 1.0 | 8.0 | 0.05 | 0.06 | 0.06 | 88 | 1009.3 |
| 20260506144341 | 62 | 133 | 1.0 | 7.0 | 0.05 | 0.05 | 0.05 | 88 | 1009.2 |
| 20260506144113 | 62 | 170 | 0.0 | 7.0 | 0.05 | 0.05 | 0.05 | 88 | 1009.1 |
| 20260506143340 | 62 | 166 | 1.0 | 7.0 | 0.05 | 0.05 | 0.05 | 88 | 1009.2 |
| 20260506143120 | 62 | 150 | 1.0 | 7.0 | 0.05 | 0.05 | 0.05 | 88 | 1009.1 |
| 20260506142344 | 62 | 176 | 1.0 | 6.0 | 0.04 | 0.04 | 0.04 | 88 | 1009.2 |
| 20260506141840 | 62 | 151 | 2.0 | 7.0 | 0.04 | 0.04 | 0.04 | 87 | 1009.1 |
| 20260506141336 | 62 | 159 | 2.0 | 7.0 | 0.03 | 0.03 | 0.03 | 87 | 1009.5 |
| 20260506140836 | 62 | 202 | 2.0 | 10.0 | 0.02 | 0.02 | 0.03 | 86 | 1009.5 |
| 20260506140338 | 62 | 155 | 2.0 | 11.0 | 0.02 | 0.02 | 0.02 | 86 | 1009.6 |
| 20260506135837 | 62 | 163 | 2.0 | 11.0 | 0.02 | 0.02 | 0.02 | 85 | 1009.6 |
| 20260506135338 | 63 | 181 | 1.0 | 8.0 | 0.01 | 0.01 | 0.01 | 84 | 1009.7 |
| 20260506134839 | 63 | 170 | 2.0 | 9.0 | 0.01 | 0.01 | 0.01 | 84 | 1009.5 |
| 20260506134336 | 63 | 198 | 2.0 | 9.0 | 0.00 | 0.00 | 0.00 | 83 | 1009.3 |
| 20260506133837 | 63 | 161 | 2.0 | 11.0 | 0.00 | 0.00 | 0.00 | 82 | 1009.4 |
| 20260506133337 | 64 | 213 | 3.0 | 12.0 | 0.00 | 0.00 | 0.00 | 80 | 1009.5 |
| 20260506132836 | 64 | 221 | 2.0 | 12.0 | 0.00 | 0.00 | 0.00 | 80 | 1009.5 |
| 20260506132336 | 64 | 190 | 2.0 | 8.0 | 0.00 | 0.00 | 0.00 | 79 | 1009.4 |
| 20260506131837 | 64 | 157 | 2.0 | 8.0 | 0.00 | 0.00 | 0.00 | 79 | 1009.2 |
| 20260506131337 | 64 | 163 | 2.0 | 8.0 | 0.00 | 0.00 | 0.00 | 79 | 1009.1 |
| 20260506130836 | 64 | 195 | 2.0 | 8.0 | 0.00 | 0.00 | 0.00 | 80 | 1009.1 |
| 20260506130336 | 64 | 175 | 2.0 | 8.0 | 0.00 | 0.00 | 0.00 | 80 | 1009.1 |
| 20260506125834 | 64 | 188 | 2.0 | 10.0 | 0.00 | 0.00 | 0.00 | 81 | 1009.2 |
| 20260506125330 | 64 | 153 | 1.0 | 10.0 | 0.00 | 0.00 | 0.00 | 82 | 1009.2 |
| 20260506124832 | 64 | 144 | 1.0 | 6.0 | 0.00 | 0.00 | 0.00 | 83 | 1009.2 |
| 20260506124334 | 63 | 188 | 2.0 | 11.0 | 0.00 | 0.00 | 0.00 | 82 | 1009.4 |
| 20260506124330 | 63 | 107 | 2.0 | 11.0 | 0.00 | 0.00 | 0.00 | 82 | 1009.3 |
| 20260506123604 | 64 | 173 | 2.0 | 9.0 | 0.00 | 0.00 | 0.00 | 81 | 1009.5 |
| 20260506122831 | 64 | 182 | 2.0 | 10.0 | 0.00 | 0.00 | 0.00 | 80 | 1009.6 |
| 20260506122324 | 64 | 161 | 2.0 | 10.0 | 0.00 | 0.00 | 0.00 | 80 | 1009.6 |
| 20260506121824 | 64 | 188 | 2.0 | 11.0 | 0.00 | 0.00 | 0.00 | 80 | 1009.5 |
| 20260506121323 | 64 | 202 | 3.0 | 11.0 | 0.00 | 0.00 | 0.00 | 79 | 1009.6 |
| 20260506120821 | 64 | 194 | 3.0 | 13.0 | 0.00 | 0.00 | 0.00 | 79 | 1009.6 |
| 20260506120321 | 64 | 228 | 4.0 | 13.0 | 0.00 | 0.00 | 0.00 | 79 | 1009.4 |
| 20260506120053 | 64 | 148 | 3.0 | 11.0 | 0.00 | 0.00 | 0.00 | 80 | 1009.5 |
| 20260506115941 | 64 | 196 | 3.0 | 11.0 | 0.00 | 0.00 | 0.00 | 79 | 1009.4 |
| 20260506114816 | 64 | 169 | 4.0 | 11.0 | 0.00 | 0.00 | 0.00 | 79 | 1009.0 |
| 20260506114316 | 64 | 178 | 5.0 | 18.0 | 0.00 | 0.00 | 0.00 | 79 | 1009.2 |
| 20260506113817 | 64 | 166 | 4.0 | 18.0 | 0.00 | 0.00 | 0.00 | 80 | 1009.3 |
| 20260506113315 | 64 | 167 | 3.0 | 9.0 | 0.00 | 0.00 | 0.00 | 80 | 1009.2 |
| 20260506112816 | 64 | 170 | 3.0 | 14.0 | 0.00 | 0.00 | 0.00 | 80 | 1009.1 |
| 20260506112315 | 64 | 153 | 4.0 | 14.0 | 0.00 | 0.00 | 0.00 | 79 | 1009.1 |
| 20260506111808 | 64 | 167 | 4.0 | 13.0 | 0.00 | 0.00 | 0.00 | 80 | 1009.0 |
| 20260506111309 | 64 | 147 | 4.0 | 13.0 | 0.00 | 0.00 | 0.00 | 79 | 1008.9 |
| 20260506110809 | 64 | 142 | 4.0 | 12.0 | 0.00 | 0.00 | 0.00 | 79 | 1008.9 |
| 20260506110542 | 65 | 197 | 3.0 | 10.0 | 0.00 | 0.00 | 0.00 | 79 | 1008.9 |
| 20260506105809 | 64 | 142 | 3.0 | 10.0 | 0.00 | 0.00 | 0.00 | 80 | 1008.9 |
| 20260506105311 | 64 | 165 | 4.0 | 12.0 | 0.00 | 0.00 | 0.00 | 80 | 1008.8 |
| 20260506104804 | 64 | 137 | 4.0 | 12.0 | 0.00 | 0.00 | 0.00 | 80 | 1008.9 |
| 20260506104305 | 64 | 183 | 4.0 | 12.0 | 0.00 | 0.00 | 0.00 | 80 | 1008.8 |
| 20260506104035 | 64 | 174 | 4.0 | 12.0 | 0.00 | 0.00 | 0.00 | 80 | 1008.8 |
| 20260506103303 | 64 | 159 | 4.0 | 14.0 | 0.00 | 0.00 | 0.00 | 80 | 1008.7 |
| 20260506102803 | 64 | 158 | 4.0 | 14.0 | 0.00 | 0.00 | 0.00 | 80 | 1008.7 |
| 20260506102305 | 64 | 169 | 4.0 | 12.0 | 0.00 | 0.00 | 0.00 | 80 | 1008.7 |
| 20260506101758 | 64 | 160 | 3.0 | 14.0 | 0.00 | 0.00 | 0.00 | 80 | 1008.9 |
| 20260506101258 | 64 | 162 | 3.0 | 14.0 | 0.00 | 0.00 | 0.00 | 80 | 1008.7 |
| 20260506100800 | 64 | 126 | 3.0 | 17.0 | 0.00 | 0.00 | 0.00 | 80 | 1008.7 |
| 20260506100528 | 64 | 180 | 4.0 | 17.0 | 0.00 | 0.00 | 0.00 | 80 | 1008.7 |
| 20260506095757 | 64 | 200 | 4.0 | 12.0 | 0.00 | 0.00 | 0.00 | 80 | 1008.7 |
| 20260506095257 | 64 | 146 | 4.0 | 19.0 | 0.00 | 0.00 | 0.00 | 80 | 1008.8 |
| 20260506094753 | 64 | 172 | 4.0 | 19.0 | 0.00 | 0.00 | 0.00 | 80 | 1008.7 |
| 20260506094253 | 64 | 147 | 4.0 | 12.0 | 0.00 | 0.00 | 0.00 | 80 | 1008.9 |
| 20260506094022 | 64 | 171 | 4.0 | 12.0 | 0.00 | 0.00 | 0.00 | 80 | 1008.7 |
| 20260506093252 | 64 | 180 | 3.0 | 11.0 | 0.00 | 0.00 | 0.00 | 80 | 1008.7 |
| 20260506092751 | 64 | 157 | 3.0 | 10.0 | 0.00 | 0.00 | 0.00 | 79 | 1008.6 |
| 20260506092254 | 64 | 165 | 3.0 | 13.0 | 0.00 | 0.00 | 0.00 | 79 | 1008.6 |
| 20260506092021 | 64 | 182 | 3.0 | 13.0 | 0.00 | 0.00 | 0.00 | 79 | 1008.7 |
| 20260506091521 | 64 | 196 | 2.0 | 12.0 | 0.00 | 0.00 | 0.00 | 79 | 1008.8 |
| 20260506090745 | 64 | 198 | 2.0 | 12.0 | 0.00 | 0.00 | 0.00 | 79 | 1008.9 |
| 20260506090246 | 64 | 163 | 3.0 | 12.0 | 0.00 | 0.00 | 0.00 | 79 | 1008.9 |
| 20260506085745 | 65 | 186 | 3.0 | 12.0 | 0.00 | 0.00 | 0.00 | 79 | 1009.0 |
| 20260506085245 | 65 | 181 | 3.0 | 12.0 | 0.00 | 0.00 | 0.00 | 78 | 1008.9 |
| 20260506084741 | 65 | 171 | 3.0 | 10.0 | 0.00 | 0.00 | 0.00 | 78 | 1008.9 |
| 20260506084241 | 65 | 150 | 3.0 | 13.0 | 0.00 | 0.00 | 0.00 | 77 | 1008.9 |
| 20260506083741 | 65 | 156 | 4.0 | 18.0 | 0.00 | 0.00 | 0.00 | 77 | 1008.9 |
| 20260506083238 | 65 | 178 | 3.0 | 18.0 | 0.00 | 0.00 | 0.00 | 76 | 1008.8 |
| 20260506082740 | 65 | 180 | 4.0 | 13.0 | 0.00 | 0.00 | 0.00 | 76 | 1008.8 |
| 20260506082239 | 66 | 136 | 4.0 | 13.0 | 0.00 | 0.00 | 0.00 | 75 | 1008.7 |
| 20260506081731 | 66 | 217 | 4.0 | 11.0 | 0.00 | 0.00 | 0.00 | 75 | 1008.7 |
| 20260506081507 | 66 | 153 | 4.0 | 11.0 | 0.00 | 0.00 | 0.00 | 74 | 1008.7 |
| 20260506081005 | 66 | 165 | 4.0 | 10.0 | 0.00 | 0.00 | 0.00 | 74 | 1008.7 |
| 20260506080233 | 66 | 198 | 4.0 | 12.0 | 0.00 | 0.00 | 0.00 | 74 | 1008.8 |
| 20260506073227 | 67 | 170 | 4.0 | 15.0 | 0.00 | 0.00 | 0.00 | 74 | 1009.0 |
| 20260506072727 | 67 | 157 | 3.0 | 11.0 | 0.00 | 0.00 | 0.00 | 74 | 1009.0 |
| 20260506072458 | 67 | 281 | 3.0 | 16.0 | 0.00 | 0.00 | 0.00 | 74 | 1009.0 |
| 20260506071721 | 67 | 161 | 4.0 | 16.0 | 0.00 | 0.00 | 0.00 | 74 | 1009.0 |
| 20260506071457 | 67 | 169 | 3.0 | 12.0 | 0.00 | 0.00 | 0.00 | 74 | 1009.0 |
| 20260506070722 | 67 | 183 | 2.0 | 10.0 | 0.00 | 0.00 | 0.00 | 74 | 1009.1 |
| 20260506070455 | 67 | 195 | 3.0 | 12.0 | 0.00 | 0.00 | 0.00 | 74 | 1009.1 |
| 20260506062217 | 67 | 171 | 2.0 | 9.0 | 0.00 | 0.00 | 0.00 | 74 | 1009.3 |
| 20260506061718 | 67 | 228 | 2.0 | 9.0 | 0.00 | 0.00 | 0.00 | 74 | 1009.3 |
| 20260506061220 | 67 | 159 | 2.0 | 9.0 | 0.00 | 0.00 | 0.00 | 73 | 1009.3 |
| 20260506060950 | 67 | 148 | 2.0 | 8.0 | 0.00 | 0.00 | 0.00 | 73 | 1009.3 |
| 20260506060219 | 67 | 186 | 2.0 | 10.0 | 0.00 | 0.00 | 0.00 | 73 | 1009.3 |
| 20260506051210 | 67 | 169 | 1.0 | 7.0 | 0.00 | 0.00 | 0.00 | 71 | 1009.6 |
| 20260506050714 | 67 | 180 | 1.0 | 6.0 | 0.00 | 0.00 | 0.00 | 70 | 1009.6 |
| 20260506050710 | 67 | 168 | 1.0 | 7.0 | 0.00 | 0.00 | 0.00 | 71 | 1009.6 |
| 20260506044710 | 68 | 144 | 1.0 | 14.0 | 0.00 | 0.00 | 0.00 | 68 | 1009.7 |
| 20260506044209 | 68 | 181 | 1.0 | 12.0 | 0.00 | 0.00 | 0.00 | 67 | 1009.6 |
| 20260506043708 | 68 | 185 | 1.0 | 12.0 | 0.00 | 0.00 | 0.00 | 67 | 1009.6 |
| 20260506043203 | 68 | 157 | 1.0 | 6.0 | 0.00 | 0.00 | 0.00 | 67 | 1009.7 |
| 20260506042702 | 68 | 203 | 1.0 | 6.0 | 0.00 | 0.00 | 0.00 | 68 | 1009.7 |
| 20260506042159 | 68 | 144 | 1.0 | 10.0 | 0.00 | 0.00 | 0.00 | 68 | 1009.7 |
| 20260506041655 | 67 | 186 | 1.0 | 10.0 | 0.00 | 0.00 | 0.00 | 69 | 1009.7 |
| 20260506041155 | 67 | 236 | 1.0 | 9.0 | 0.00 | 0.00 | 0.00 | 69 | 1009.6 |
| 20260506040651 | 67 | 188 | 1.0 | 9.0 | 0.00 | 0.00 | 0.00 | 69 | 1009.7 |